Miscellaneous Local Product
Issued by NWS Hastings, NE

Home | Current Version | Previous Version | Graphics & Text | Print | Product List | Glossary On
Versions: 1 2 3 4 5 6 7 8 9 10 11 12 13 14 15 16 17 18 19 20 21 22 23 24 25 26 27 28 29 30 31 32 33 34 35 36 37 38 39 40 41 42 43 44 45 46 47 48 49 50
841
AXUS43 KGID 210202
MISGRI

GID CWA HOURLY WEATHER ROUNDUP
NATIONAL WEATHER SERVICE HASTINGS NE
800 PM CST FRI JAN 20 2017

NOTE: "FAIR" INDICATES FEW OR NO CLOUDS BELOW 12,000 FEET WITH NO
SIGNIFICANT WEATHER AND/OR OBSTRUCTIONS TO VISIBILITY.

...SOUTH CENTRAL NEBRASKA...

CITY           SKY/WX    TMP DP  RH WIND       PRES   REMARKS
GRAND ISLAND   CLOUDY    39  39 100 S8        29.41F FOG     WCI  33
HASTINGS       FOG       39  39 100 S3        29.42R VSB 1/4
KEARNEY        CLOUDY    37 -11  12 S5        29.41S WCI  34
ORD            FOG       38  37  97 S3        29.38R VSB 1/4
YORK           FOG       41  41 100 CALM      29.42S VSB 1/4
AURORA         CLOUDY    39  39 100 S6        29.41S WCI  35
LEXINGTON      CLOUDY    36  34  92 S7        29.40R FOG     WCI  31
HOLDREGE       CLOUDY    37  36  97 SW6       29.40F FOG     WCI  32
HEBRON         LGT RAIN  41  41 100 CALM      29.43S VSB 1/2

...NEBRASKA PANHANDLE...

CITY           SKY/WX    TMP DP  RH WIND       PRES   REMARKS
CHADRON        CLOUDY    36  32  85 W17       29.38S WCI  26
ALLIANCE       CLOUDY    35  33  92 W12       29.38S WCI  27
SCOTTSBLUFF    CLOUDY    36  32  85 W10       29.41S WCI  28
SIDNEY         CLOUDY    35  32  88 NW13      29.42R WCI  26

...WESTERN AND NORTH CENTRAL NEBRASKA...

CITY           SKY/WX    TMP DP  RH WIND       PRES   REMARKS
VALENTINE      CLOUDY    35  28  75 SW7       29.35S WCI  29
AINSWORTH      CLOUDY    33  31  90 SW6       29.36R WCI  28
ONEILL         FOG       40  40 100 S6        29.38S VSB 1
BROKEN BOW     MOCLDY    35  35 100 SE6       29.37R FOG     WCI  30
IMPERIAL       CLOUDY    39  32  76 NW8       29.40R WCI  33
NORTH PLATTE   CLOUDY    36  32  85 CALM      29.38R
MCCOOK         CLOUDY    36  34  92 SW8       29.40R WCI  30

...EASTERN NEBRASKA...

CITY           SKY/WX    TMP DP  RH WIND       PRES   REMARKS
NORFOLK        LGT RAIN  38  38 100 SE7       29.40S VSB 1/2 WCI  33
SO SIOUX CITY  LGT RAIN  40  39  97 SE7       29.44F
TEKAMAH        CLOUDY    38  37  97 CALM      29.45S
COLUMBUS       CLOUDY    39  39 100 SE7       29.43R VSB 3/4 WCI  34
ALBION         DRZL/FOG N/A N/A N/A SE6       29.40S VSB 1
OMAHA EPPLEY   DRIZZLE   41  38  89 SE9       29.45F
OFFUTT AFB     PTCLDY    41  41 100 E6        29.45R
MILLARD        CLOUDY    44  42  95 SE7       29.45R
LINCOLN        LGT RAIN  43  42  97 SE8       29.44S FOG
NEBRASKA CITY  FOG       42  42 100 SE6       29.44F VSB 1/4
BEATRICE       DRZL/FOG  44  44 100 SE5       29.43F VSB 3/4
FALLS CITY     LGT RAIN  44  44 100 SE6       29.45S VSB 1/2

...NORTHERN KANSAS...

CITY           SKY/WX    TMP DP  RH WIND       PRES   REMARKS
GOODLAND       CLOUDY    35  33  92 W15       29.43R WCI  25
HILL CITY      CLOUDY    39  37  92 W6        29.43R WCI  35
NORTON         DRIZZLE   37  34  87 SW5       29.40S WCI  34
PHILLIPSBURG   CLOUDY    39  39 100 W3        29.42S FOG
SMITH CENTER   CLOUDY    39  39 100 CALM      29.41F FOG
HAYS           LGT RAIN  42  37  82 W3        29.43R
RUSSELL        CLOUDY    43  39  86 NW3       29.40S
CONCORDIA      CLOUDY    44  44 100 W3        29.43S FOG
SALINA         CLOUDY    45  43  93 CALM      29.43F
TOPEKA         CLOUDY    50  46  86 CALM      29.45S



USA.gov is the U.S. government's official web portal to all federal, state and local government web resources and services.